Great Falls, MT

11:16 AM MST on February 20, 2018 (GMT -0700)
Great Falls International

Weather History for KGTF - January, 2014

Change the Weather History Date:

Wednesday, January 22, 2014

  Actual Average Record
Temperature  
Mean Temperature 20 °F 26 °F  
Max Temperature 32 °F 36 °F 62 °F (1981)
Min Temperature 8 °F 15 °F -32 °F (1982)
Degree Days  
Heating Degree Days 45 39  
Month to date heating degree days 728 882  
Since 1 July heating degree days 3882 4099  
Cooling Degree Days 0 0  
Month to date cooling degree days 0 0  
Year to date cooling degree days 0 0  
Moisture  
Dew Point 21 °F    
Average Humidity 86    
Maximum Humidity 100    
Minimum Humidity 72    
Precipitation  
Precipitation 0.24 in 0.02 in 0.47 in (1993)
Month to date precipitation 0.68 0.37  
Year to date precipitation 0.68 0.37  
Snow  
Snow 2.90 in 0.20 in 5.30 in (1993)
Month to date snowfall 12.1 6.2  
Since 1 July snowfall 35.0 29.4  
Snow Depth T in    
Sea Level Pressure  
Sea Level Pressure 30.32 in    
Wind  
Wind Speed 6 mph (NE)    
Max Wind Speed 16 mph    
Max Gust Speed 18 mph    
Visibility 3 miles    
Events Fog , Snow    
T = Trace of Precipitation, MM = Missing Value Source: NWS Daily Summary

Daily Weather History Graph

Daily Weather History Graph

Search for Another Location

Airport or City:

Trip Planner

Search our weather history database for the weather conditions in past years. The results will help you decide how hot, cold, wet, or windy it might be!

Date:

Astronomy

Jan. 22, 2014 Rise Set
Actual Time 8:02 AM MST 5:11 PM MST
Civil Twilight 7:28 AM MST 5:45 PM MST
Nautical Twilight 6:51 AM MST 6:23 PM MST
Astronomical Twilight 6:14 AM MST 6:59 PM MST
Moon No Moon Rise 10:37 AM MST (1/22)
Length of Visible Light 10h 16m
Length of Day
9h 09m
Waning Gibbous, 65% of the Moon is Illuminated
Jan 22
Waning Gibbous
Jan 23
Last Quarter
Jan 30
New
Feb 6
First Quarter
Feb 14
Full

Hourly Weather History & Observations

Time (MST) Temp. Windchill Dew Point Humidity Pressure Visibility Wind Dir Wind Speed Gust Speed Precip Events Conditions
12:53 AM 30.9 °F - 25.0 °F 79% 30.34 in 10.0 mi Calm Calm - N/A   Overcast
1:53 AM 32.0 °F 27.5 °F 25.0 °F 75% 30.30 in 10.0 mi East 4.6 mph - N/A   Overcast
2:53 AM 30.9 °F 24.3 °F 25.0 °F 79% 30.30 in 10.0 mi East 6.9 mph - N/A   Overcast
3:53 AM 30.9 °F 26.2 °F 25.0 °F 79% 30.29 in 7.0 mi East 4.6 mph - 0.00 in Snow Light Snow
4:07 AM 30.2 °F 25.4 °F 26.6 °F 86% 30.20 in 2.0 mi ENE 4.6 mph - 0.00 in Snow Light Snow
4:24 AM 30.2 °F 25.4 °F 26.6 °F 86% 30.20 in 3.0 mi East 4.6 mph - 0.00 in Snow Light Snow
4:42 AM 30.2 °F 24.3 °F 26.6 °F 86% 30.20 in 2.0 mi East 5.8 mph - 0.00 in Snow Light Snow
4:53 AM 28.9 °F 23.9 °F 27.0 °F 92% 30.31 in 2.0 mi East 4.6 mph - 0.00 in Snow Light Snow
5:16 AM 28.4 °F 22.2 °F 28.4 °F 100% 30.19 in 1.2 mi East 5.8 mph - 0.01 in Snow Light Snow
5:26 AM 28.4 °F 22.2 °F 28.4 °F 100% 30.19 in 1.5 mi East 5.8 mph - 0.01 in Snow Light Snow
5:34 AM 28.4 °F 22.2 °F 28.4 °F 100% 30.19 in 1.2 mi East 5.8 mph - 0.02 in Snow Light Snow
5:45 AM 28.4 °F 21.2 °F 28.4 °F 100% 30.19 in 1.2 mi ENE 6.9 mph - 0.03 in Snow Light Snow
5:53 AM 28.9 °F 21.9 °F 28.0 °F 96% 30.30 in 1.0 mi ENE 6.9 mph - 0.03 in Snow Light Snow
6:45 AM 28.4 °F 21.2 °F 28.4 °F 100% 30.18 in 0.8 mi East 6.9 mph - 0.03 in Snow Light Snow
6:53 AM 28.9 °F 22.8 °F 28.0 °F 96% 30.30 in 1.0 mi East 5.8 mph - 0.04 in Snow Light Snow
7:10 AM 28.4 °F 22.2 °F 28.4 °F 100% 30.18 in 0.8 mi East 5.8 mph - 0.02 in Snow Light Snow
7:14 AM 28.4 °F 23.3 °F 28.4 °F 100% 30.18 in 1.0 mi ENE 4.6 mph - 0.02 in Snow Light Snow
7:49 AM 28.4 °F 23.3 °F 28.4 °F 100% 30.17 in 1.0 mi ENE 4.6 mph - 0.04 in Snow Light Snow
7:53 AM 28.9 °F 22.8 °F 28.0 °F 96% 30.31 in 1.0 mi ENE 5.8 mph - 0.04 in Snow Light Snow
8:00 AM 28.4 °F 23.3 °F 28.4 °F 100% 30.18 in 1.0 mi ENE 4.6 mph - 0.01 in Snow Light Snow
8:16 AM 28.4 °F 23.3 °F 28.4 °F 100% 30.18 in 0.8 mi ENE 4.6 mph - 0.01 in Snow Light Snow
8:24 AM 28.4 °F 24.6 °F 28.4 °F 100% 30.18 in 1.0 mi ENE 3.5 mph - 0.02 in Snow Light Snow
8:37 AM 28.4 °F 23.3 °F 28.4 °F 100% 30.18 in 1.0 mi NE 4.6 mph - 0.02 in Snow Light Snow
8:53 AM 28.0 °F 21.7 °F 27.0 °F 96% 30.32 in 0.8 mi NE 5.8 mph - 0.03 in Snow Light Snow
9:14 AM 26.6 °F 17.5 °F 26.6 °F 100% 30.19 in 0.8 mi NE 9.2 mph - 0.01 in Snow Light Snow
9:53 AM 27.0 °F 18.0 °F 26.1 °F 96% 30.33 in 0.8 mi NE 9.2 mph - 0.03 in Snow Light Snow
10:51 AM 28.4 °F 18.5 °F 26.6 °F 93% 30.20 in 0.8 mi ENE 11.5 mph - 0.03 in Snow Light Snow
10:53 AM 28.0 °F 19.3 °F 27.0 °F 96% 30.34 in 0.8 mi ENE 9.2 mph - 0.03 in Snow Light Snow
11:11 AM 28.4 °F 19.1 °F 26.6 °F 93% 30.20 in 1.0 mi NE 10.4 mph - 0.00 in Snow Light Snow
11:19 AM 28.4 °F 19.1 °F 26.6 °F 93% 30.20 in 1.0 mi NE 10.4 mph - 0.01 in Snow Light Snow
11:35 AM 28.4 °F 19.7 °F 26.6 °F 93% 30.20 in 1.0 mi NE 9.2 mph - 0.01 in Snow Light Snow
11:53 AM 28.0 °F 19.3 °F 26.1 °F 92% 30.34 in 1.0 mi ENE 9.2 mph - 0.01 in Snow Light Snow
12:53 PM 27.0 °F 16.7 °F 25.0 °F 92% 30.35 in 1.8 mi NE 11.5 mph - 0.02 in Snow Light Snow
1:07 PM 26.6 °F 16.2 °F 24.8 °F 93% 30.21 in 1.2 mi NE 11.5 mph - 0.00 in Snow Light Snow
1:34 PM 26.6 °F 20.0 °F 24.8 °F 93% 30.21 in 1.2 mi NNE 5.8 mph - 0.01 in Snow Light Snow
1:50 PM 26.6 °F 17.5 °F 24.8 °F 93% 30.21 in 1.0 mi NNE 9.2 mph - 0.01 in Snow Light Snow
1:53 PM 27.0 °F 18.7 °F 25.0 °F 92% 30.36 in 1.0 mi NE 8.1 mph - 0.01 in Snow Light Snow
2:04 PM 26.6 °F 16.2 °F 24.8 °F 93% 30.23 in 1.5 mi NNE 11.5 mph - 0.00 in Snow Light Snow
2:12 PM 26.6 °F 15.7 °F 24.8 °F 93% 30.23 in 3.0 mi NE 12.7 mph - 0.00 in Snow Light Snow
2:29 PM 26.6 °F 16.8 °F 24.8 °F 93% 30.24 in 1.8 mi NE 10.4 mph - 0.00 in Snow Light Snow
2:53 PM 26.1 °F 16.8 °F 23.0 °F 88% 30.39 in 3.0 mi NE 9.2 mph - 0.00 in Snow Light Snow
3:15 PM 24.8 °F 14.6 °F 21.2 °F 86% 30.25 in 10.0 mi NNE 10.4 mph - 0.00 in   Overcast
3:23 PM 24.8 °F 16.1 °F 21.2 °F 86% 30.26 in 10.0 mi NNE 8.1 mph - 0.00 in   Overcast
3:34 PM 26.6 °F 19.1 °F 21.2 °F 80% 30.26 in 10.0 mi NNE 6.9 mph - 0.00 in   Mostly Cloudy
3:53 PM 24.1 °F 14.4 °F 21.0 °F 88% 30.43 in 10.0 mi NNE 9.2 mph - 0.00 in   Mostly Cloudy
4:53 PM 21.0 °F 13.4 °F 18.0 °F 88% 30.48 in 10.0 mi NNE 5.8 mph - N/A   Mostly Cloudy
5:26 PM 19.4 °F 12.8 °F 17.6 °F 93% 30.33 in 10.0 mi North 4.6 mph - N/A   Mostly Cloudy
5:53 PM 19.0 °F 10.0 °F 16.0 °F 88% 30.52 in 10.0 mi NNE 6.9 mph - N/A   Overcast
6:53 PM 19.0 °F 13.9 °F 18.0 °F 96% 30.54 in 10.0 mi North 3.5 mph - N/A   Overcast
7:26 PM 15.8 °F 8.6 °F 14.0 °F 93% 30.37 in 9.0 mi North 4.6 mph - N/A   Scattered Clouds
7:35 PM 14.0 °F 8.2 °F 12.2 °F 93% 30.38 in 1.5 mi NNE 3.5 mph - N/A   Partly Cloudy
7:48 PM 12.2 °F - 12.2 °F 100% 30.38 in 0.8 mi Calm Calm - N/A   Clear
7:53 PM 12.9 °F 6.9 °F 10.9 °F 92% 30.58 in 0.5 mi North 3.5 mph - N/A Fog Light Freezing Fog
8:00 PM 12.2 °F 6.1 °F 12.2 °F 100% 30.39 in 1.8 mi North 3.5 mph - N/A   Clear
8:05 PM 8.6 °F 2.0 °F 8.6 °F 100% 30.39 in 0.8 mi North 3.5 mph - N/A   Mist
8:16 PM 12.2 °F 6.1 °F 10.4 °F 92% 30.39 in 0.2 mi NE 3.5 mph - N/A Fog Light Freezing Fog
8:32 PM 10.4 °F - 10.4 °F 100% 30.40 in 0.2 mi Calm Calm - N/A Fog Light Freezing Fog
8:38 PM 12.2 °F - 10.4 °F 92% 30.39 in 1.0 mi Calm Calm - N/A   Mist
8:40 PM 12.2 °F - 12.2 °F 100% 30.39 in 1.5 mi Calm Calm - N/A   Scattered Clouds
8:43 PM 12.2 °F - 10.4 °F 92% 30.40 in 3.0 mi Calm Calm - N/A   Scattered Clouds
8:53 PM 12.9 °F - 12.0 °F 96% 30.60 in 4.0 mi Calm Calm - N/A   Mostly Cloudy
9:08 PM 12.2 °F - 12.2 °F 100% 30.41 in 1.8 mi Calm Calm - N/A   Overcast
9:13 PM 14.0 °F - 12.2 °F 93% 30.41 in 3.0 mi Calm Calm - N/A   Overcast
9:53 PM 15.1 °F - 12.9 °F 91% 30.61 in 10.0 mi Calm Calm - N/A   Scattered Clouds
10:12 PM 14.0 °F - 12.2 °F 93% 30.42 in 10.0 mi Calm Calm - N/A   Mostly Cloudy
10:38 PM 12.2 °F - 10.4 °F 92% 30.41 in 2.5 mi Calm Calm - N/A   Scattered Clouds
10:53 PM 12.9 °F - 12.0 °F 96% 30.61 in 2.5 mi Calm Calm - N/A   Partly Cloudy
11:01 PM 12.2 °F 6.1 °F 10.4 °F 92% 30.41 in 4.0 mi SSE 3.5 mph - N/A   Scattered Clouds
11:08 PM 12.2 °F 6.1 °F 10.4 °F 92% 30.41 in 7.0 mi South 3.5 mph - N/A   Mostly Cloudy
11:25 PM 15.8 °F - 12.2 °F 86% 30.41 in 7.0 mi Calm Calm - N/A   Scattered Clouds
11:53 PM 10.0 °F -0.9 °F 8.1 °F 92% 30.62 in 6.0 mi SSW 6.9 mph - N/A   Clear